TimeCDT,TemperatureF,Dew PointF,Humidity,Sea Level PressureIn,VisibilityMPH,Wind Direction,Wind SpeedMPH,Gust SpeedMPH,PrecipitationIn,Events,Conditions,WindDirDegrees,DateUTC
12:15 AM,55.4,44.6,67,30.02,10.0,Calm,Calm,-,N/A,,Clear,0,2012-11-01 05:15:00
12:35 AM,55.4,46.4,72,30.03,10.0,Calm,Calm,-,N/A,,Clear,0,2012-11-01 05:35:00
12:55 AM,-9999,-9999,N/A,30.02,10.0,Calm,Calm,-,N/A,,Clear,0,2012-11-01 05:55:00
1:15 AM,51.8,44.6,76,30.03,10.0,SSW,4.6,-,N/A,,Clear,210,2012-11-01 06:15:00
1:35 AM,-9999,-9999,N/A,30.02,10.0,SW,3.5,-,N/A,,Clear,230,2012-11-01 06:35:00
1:55 AM,51.8,44.6,76,30.03,10.0,WSW,3.5,-,N/A,,Clear,250,2012-11-01 06:55:00
2:15 AM,50.0,44.6,82,30.02,10.0,WNW,4.6,-,N/A,,Clear,290,2012-11-01 07:15:00
2:35 AM,51.8,46.4,82,30.03,10.0,WNW,4.6,-,N/A,,Clear,290,2012-11-01 07:35:00
2:55 AM,51.8,44.6,76,30.03,10.0,WNW,3.5,-,N/A,,Clear,290,2012-11-01 07:55:00
3:15 AM,53.6,44.6,72,30.03,10.0,NW,3.5,-,N/A,,Clear,320,2012-11-01 08:15:00
3:35 AM,51.8,44.6,76,30.02,10.0,North,3.5,-,N/A,,Clear,350,2012-11-01 08:35:00
4:15 AM,50.0,44.6,82,30.02,10.0,NNW,4.6,-,N/A,,Clear,340,2012-11-01 09:15:00
4:35 AM,53.6,44.6,72,30.02,10.0,North,4.6,-,N/A,,Clear,360,2012-11-01 09:35:00
4:55 AM,51.8,44.6,76,30.02,10.0,North,5.8,-,N/A,,Clear,10,2012-11-01 09:55:00
5:15 AM,50.0,44.6,82,30.02,10.0,North,5.8,-,N/A,,Clear,10,2012-11-01 10:15:00
5:35 AM,50.0,44.6,82,30.03,10.0,NNE,3.5,-,N/A,,Clear,20,2012-11-01 10:35:00
6:15 AM,50.0,44.6,82,30.03,10.0,NE,6.9,-,N/A,,Clear,40,2012-11-01 11:15:00
6:35 AM,50.0,44.6,82,30.03,10.0,NE,5.8,-,N/A,,Clear,40,2012-11-01 11:35:00
6:55 AM,48.2,44.6,87,30.04,10.0,NE,3.5,-,N/A,,Clear,40,2012-11-01 11:55:00
7:15 AM,48.2,44.6,87,30.04,10.0,Calm,Calm,-,N/A,,Clear,0,2012-11-01 12:15:00
7:35 AM,50.0,44.6,82,30.04,10.0,ENE,3.5,-,N/A,,Clear,60,2012-11-01 12:35:00
8:35 AM,51.8,46.4,82,30.06,8.0,East,3.5,-,N/A,,Clear,100,2012-11-01 13:35:00
8:55 AM,53.6,48.2,82,30.06,10.0,ESE,4.6,-,N/A,,Clear,110,2012-11-01 13:55:00
9:15 AM,-9999,-9999,N/A,30.06,8.0,ESE,3.5,-,N/A,,Clear,120,2012-11-01 14:15:00
9:35 AM,59.0,50.0,72,30.07,5.0,ESE,6.9,-,N/A,,Clear,120,2012-11-01 14:35:00
9:55 AM,-9999,-9999,N/A,30.07,10.0,SE,6.9,-,N/A,,Clear,140,2012-11-01 14:55:00
10:15 AM,-9999,-9999,N/A,30.07,10.0,SE,8.1,-,N/A,,Clear,130,2012-11-01 15:15:00
10:35 AM,-9999,-9999,N/A,30.07,10.0,SE,10.4,-,N/A,,Clear,130,2012-11-01 15:35:00
10:55 AM,-9999,-9999,N/A,30.07,10.0,ESE,10.4,-,N/A,,Clear,120,2012-11-01 15:55:00
11:15 AM,-9999,-9999,N/A,30.06,10.0,ESE,9.2,-,N/A,,Clear,120,2012-11-01 16:15:00
11:35 AM,-9999,-9999,N/A,30.06,10.0,SSE,8.1,-,N/A,,Clear,150,2012-11-01 16:35:00
11:55 AM,-9999,-9999,N/A,30.05,10.0,SSE,6.9,-,N/A,,Clear,150,2012-11-01 16:55:00
12:15 PM,-9999,-9999,N/A,30.05,10.0,SSE,4.6,-,N/A,,Clear,160,2012-11-01 17:15:00
12:35 PM,-9999,-9999,N/A,30.03,10.0,South,10.4,-,N/A,,Clear,190,2012-11-01 17:35:00
12:55 PM,78.8,50.0,36,30.02,10.0,South,9.2,-,N/A,,Clear,190,2012-11-01 17:55:00
1:15 PM,78.8,48.2,34,30.01,10.0,South,9.2,-,N/A,,Clear,170,2012-11-01 18:15:00
1:35 PM,80.6,48.2,32,30.00,10.0,SSE,5.8,-,N/A,,Clear,160,2012-11-01 18:35:00
1:55 PM,80.6,48.2,32,29.99,10.0,SSW,11.5,-,N/A,,Clear,200,2012-11-01 18:55:00
2:15 PM,80.6,48.2,32,29.98,10.0,South,5.8,-,N/A,,Clear,190,2012-11-01 19:15:00
2:35 PM,82.4,48.2,30,29.97,10.0,South,6.9,-,N/A,,Clear,190,2012-11-01 19:35:00
2:55 PM,82.4,48.2,30,29.96,10.0,SW,8.1,-,N/A,,Clear,220,2012-11-01 19:55:00
3:15 PM,84.2,48.2,29,29.95,10.0,SW,13.8,18.4,N/A,,Clear,220,2012-11-01 20:15:00
3:35 PM,84.2,48.2,29,29.95,10.0,SW,8.1,16.1,N/A,,Clear,220,2012-11-01 20:35:00
3:55 PM,84.2,50.0,30,29.94,10.0,SW,6.9,-,N/A,,Clear,220,2012-11-01 20:55:00
4:15 PM,84.2,50.0,30,29.94,10.0,SSW,10.4,-,N/A,,Clear,200,2012-11-01 21:15:00
4:35 PM,84.2,50.0,30,29.93,10.0,SSW,11.5,-,N/A,,Clear,210,2012-11-01 21:35:00
4:55 PM,82.4,51.8,35,29.93,10.0,SSW,13.8,-,N/A,,Clear,200,2012-11-01 21:55:00
5:15 PM,82.4,51.8,35,29.93,10.0,South,12.7,-,N/A,,Clear,190,2012-11-01 22:15:00
5:35 PM,82.4,51.8,35,29.93,10.0,South,10.4,-,N/A,,Clear,190,2012-11-01 22:35:00
5:55 PM,80.6,51.8,37,29.93,10.0,South,8.1,-,N/A,,Clear,190,2012-11-01 22:55:00
6:15 PM,78.8,51.8,39,29.93,10.0,South,9.2,-,N/A,,Clear,190,2012-11-01 23:15:00
6:35 PM,75.2,50.0,41,29.93,10.0,South,5.8,-,N/A,,Clear,180,2012-11-01 23:35:00
6:55 PM,73.4,50.0,44,29.94,10.0,South,5.8,-,N/A,,Clear,170,2012-11-01 23:55:00
7:15 PM,73.4,50.0,44,29.94,10.0,South,6.9,-,N/A,,Clear,170,2012-11-02 00:15:00
7:35 PM,71.6,50.0,46,29.94,10.0,South,8.1,-,N/A,,Clear,180,2012-11-02 00:35:00
7:55 PM,69.8,51.8,53,29.95,10.0,South,6.9,-,N/A,,Clear,180,2012-11-02 00:55:00
8:15 PM,69.8,51.8,53,29.94,10.0,South,6.9,-,N/A,,Clear,190,2012-11-02 01:15:00
8:35 PM,68.0,50.0,52,29.95,10.0,South,8.1,-,N/A,,Clear,190,2012-11-02 01:35:00
8:55 PM,66.2,51.8,60,29.95,10.0,South,8.1,-,N/A,,Clear,190,2012-11-02 01:55:00
9:15 PM,64.4,51.8,64,29.95,10.0,SSW,9.2,-,N/A,,Clear,200,2012-11-02 02:15:00
9:35 PM,64.4,51.8,64,29.95,10.0,SSW,8.1,-,N/A,,Clear,210,2012-11-02 02:35:00
9:55 PM,64.4,51.8,64,29.96,10.0,SSW,6.9,-,N/A,,Clear,210,2012-11-02 02:55:00
10:15 PM,64.4,51.8,64,29.96,10.0,SW,5.8,-,N/A,,Clear,220,2012-11-02 03:15:00
10:35 PM,62.6,51.8,68,29.96,10.0,SSW,5.8,-,N/A,,Clear,210,2012-11-02 03:35:00
10:55 PM,64.4,51.8,64,29.96,10.0,SSW,4.6,-,N/A,,Clear,210,2012-11-02 03:55:00
11:15 PM,62.6,51.8,68,29.96,10.0,SW,4.6,-,N/A,,Clear,220,2012-11-02 04:15:00
11:35 PM,62.6,51.8,68,29.95,10.0,SW,5.8,-,N/A,,Clear,220,2012-11-02 04:35:00
11:55 PM,62.6,51.8,68,29.95,10.0,SW,5.8,-,N/A,,Clear,230,2012-11-02 04:55:00